Weather History for KMQS - November, 2014

Change the Weather History Date:

Sunday, November 23, 2014

  Actual Average (KLNS) Record (KLNS)
Temperature  
Mean Temperature 45 °F -  
Max Temperature 55 °F 50 °F 69 °F (1979)
Min Temperature 35 °F 31 °F 15 °F (1984)
Degree Days  
Heating Degree Days 20    
Moisture  
Dew Point 28 °F    
Average Humidity 53    
Maximum Humidity 100    
Minimum Humidity 30    
Precipitation  
Precipitation 0.01 in - - ()
Sea Level Pressure  
Sea Level Pressure 30.13 in    
Wind  
Wind Speed 3 mph (South)    
Max Wind Speed 9 mph    
Max Gust Speed 18 mph    
Visibility 10 miles    
Events Rain    
Averages and records for this station are not official NWS values.
T = Trace of Precipitation, MM = Missing Value Source: NWS Daily Summary

Daily Weather History Graph

Daily Weather History Graph

Search for Another Location

Airport or City:

Trip Planner

Search our weather history database for the weather conditions in past years. The results will help you decide how hot, cold, wet, or windy it might be!

Date:

Astronomy

Nov. 23, 2014 Rise Set
Actual Time 6:57 AM EST 4:41 PM EST
Civil Twilight 6:28 AM EST 5:11 PM EST
Nautical Twilight 5:54 AM EST 5:44 PM EST
Astronomical Twilight 5:22 AM EST 6:16 PM EST
Moon 7:51 AM EST (11/23) 6:02 PM EST (11/23)
Length of Visible Light 10h 43m
Length of Day
9h 44m
New Moon, 2% of the Moon is Illuminated
Nov 23
New Moon
Nov 29
First Quarter
Dec 6
Full
Dec 14
Last Quarter
Dec 21
New

Hourly Weather History & Observations

Time (EST) Temp. Windchill Dew Point Humidity Pressure Visibility Wind Dir Wind Speed Gust Speed Precip Events Conditions
12:15 AM 39.2 °F 37.0 °F 23.0 °F 52% 30.21 in 10.0 mi SW 3.5 mph - N/A   Scattered Clouds
12:35 AM 39.2 °F 37.0 °F 23.0 °F 52% 30.21 in 10.0 mi SW 3.5 mph - N/A   Mostly Cloudy
12:55 AM 39.2 °F - 21.2 °F 49% 30.20 in 10.0 mi Calm Calm - N/A   Scattered Clouds
1:15 AM 39.2 °F 37.0 °F 21.2 °F 49% 30.20 in 10.0 mi SW 3.5 mph - N/A   Clear
1:35 AM 37.4 °F - 21.2 °F 52% 30.20 in 10.0 mi Calm Calm - N/A   Clear
1:55 AM 37.4 °F - 21.2 °F 52% 30.20 in 10.0 mi Calm Calm - N/A   Clear
2:15 AM 37.4 °F - 19.4 °F 48% 30.19 in 10.0 mi Calm Calm - N/A   Clear
2:35 AM 37.4 °F - 21.2 °F 52% 30.18 in 10.0 mi Calm Calm - N/A   Clear
2:55 AM 37.4 °F - 19.4 °F 48% 30.19 in 10.0 mi Calm Calm - N/A   Scattered Clouds
3:15 AM 37.4 °F - 19.4 °F 48% 30.18 in 10.0 mi Calm Calm - N/A   Mostly Cloudy
3:35 AM 37.4 °F - 21.2 °F 52% 30.18 in 10.0 mi Calm Calm - N/A   Partly Cloudy
3:55 AM 35.6 °F - 23.0 °F 60% 30.18 in 10.0 mi Calm Calm - N/A   Mostly Cloudy
4:15 AM 35.6 °F 32.8 °F 23.0 °F 60% 30.19 in 10.0 mi West 3.5 mph - N/A   Scattered Clouds
4:35 AM 37.4 °F 34.9 °F 21.2 °F 52% 30.19 in 10.0 mi West 3.5 mph - N/A   Partly Cloudy
4:55 AM 37.4 °F 32.8 °F 21.2 °F 52% 30.19 in 10.0 mi SSW 5.8 mph - N/A   Mostly Cloudy
5:15 AM 37.4 °F 34.9 °F 23.0 °F 56% 30.19 in 10.0 mi South 3.5 mph - N/A   Overcast
5:35 AM 39.2 °F 37.0 °F 21.2 °F 49% 30.19 in 10.0 mi SSW 3.5 mph - N/A   Mostly Cloudy
5:55 AM 37.4 °F 34.9 °F 21.2 °F 52% 30.21 in 10.0 mi SW 3.5 mph - N/A   Mostly Cloudy
6:15 AM 37.4 °F 34.9 °F 21.2 °F 52% 30.20 in 10.0 mi SW 3.5 mph - N/A   Mostly Cloudy
6:35 AM 39.2 °F 37.0 °F 21.2 °F 49% 30.20 in 10.0 mi SW 3.5 mph - N/A   Mostly Cloudy
6:55 AM 39.2 °F 35.9 °F 21.2 °F 49% 30.21 in 10.0 mi SW 4.6 mph - N/A   Mostly Cloudy
7:15 AM 39.2 °F 37.0 °F 21.2 °F 49% 30.21 in 10.0 mi WSW 3.5 mph - N/A   Mostly Cloudy
7:35 AM 39.2 °F - 21.2 °F 49% 30.21 in 10.0 mi Calm Calm - N/A   Mostly Cloudy
7:55 AM 37.4 °F 33.8 °F 23.0 °F 56% 30.22 in 10.0 mi SSW 4.6 mph - N/A   Scattered Clouds
8:15 AM 39.2 °F 37.0 °F 23.0 °F 52% 30.22 in 10.0 mi SW 3.5 mph - N/A   Partly Cloudy
8:35 AM 39.2 °F 35.9 °F 21.2 °F 49% 30.23 in 10.0 mi SW 4.6 mph - N/A   Partly Cloudy
8:55 AM 41.0 °F 37.1 °F 23.0 °F 49% 30.22 in 10.0 mi SW 5.8 mph - N/A   Partly Cloudy
9:15 AM 41.0 °F 37.1 °F 23.0 °F 49% 30.21 in 10.0 mi SW 5.8 mph - N/A   Partly Cloudy
9:35 AM 42.8 °F 39.3 °F 23.0 °F 46% 30.21 in 10.0 mi WSW 5.8 mph - N/A   Clear
9:55 AM 44.6 °F 41.4 °F 23.0 °F 43% 30.21 in 10.0 mi WSW 5.8 mph - N/A   Clear
10:15 AM 46.4 °F 44.3 °F 23.0 °F 40% 30.20 in 10.0 mi WNW 4.6 mph - N/A   Clear
10:35 AM 48.2 °F - 23.0 °F 37% 30.19 in 10.0 mi WNW 3.5 mph - N/A   Clear
10:55 AM 48.2 °F - 23.0 °F 37% 30.19 in 10.0 mi Calm Calm - N/A   Clear
11:15 AM 50.0 °F - 23.0 °F 35% 30.17 in 10.0 mi SSW 3.5 mph - N/A   Clear
11:35 AM 51.8 °F - 23.0 °F 33% 30.16 in 10.0 mi SSW 3.5 mph - N/A   Clear
11:55 AM 51.8 °F - 23.0 °F 33% 30.16 in 10.0 mi South 4.6 mph - N/A   Clear
12:15 PM 51.8 °F - 23.0 °F 33% 30.15 in 10.0 mi SSE 4.6 mph - N/A   Clear
12:35 PM 53.6 °F - 23.0 °F 30% 30.14 in 10.0 mi SSW 4.6 mph - N/A   Clear
12:55 PM 55.4 °F - 24.8 °F 31% 30.15 in 10.0 mi SSE 5.8 mph - N/A   Clear
1:15 PM 53.6 °F - 24.8 °F 33% 30.14 in 10.0 mi SSE 6.9 mph - N/A   Clear
1:35 PM 53.6 °F - 24.8 °F 33% 30.13 in 10.0 mi SSE 5.8 mph - N/A   Clear
1:55 PM 51.8 °F - 24.8 °F 35% 30.13 in 10.0 mi SSE 3.5 mph - N/A   Clear
2:15 PM 50.0 °F - 23.0 °F 35% 30.12 in 10.0 mi South 5.8 mph - N/A   Clear
2:35 PM 50.0 °F - 24.8 °F 37% 30.12 in 10.0 mi South 6.9 mph - N/A   Clear
2:55 PM 50.0 °F - 24.8 °F 37% 30.12 in 10.0 mi SE 6.9 mph - N/A   Clear
3:15 PM 50.0 °F - 26.6 °F 40% 30.12 in 10.0 mi SSE 6.9 mph - N/A   Clear
3:35 PM 50.0 °F - 26.6 °F 40% 30.12 in 10.0 mi SSE 4.6 mph - N/A   Clear
3:55 PM 50.0 °F - 28.4 °F 43% 30.11 in 10.0 mi South 3.5 mph - N/A   Clear
4:15 PM 48.2 °F - 28.4 °F 46% 30.11 in 10.0 mi Calm Calm - N/A   Clear
4:35 PM 48.2 °F - 28.4 °F 46% 30.11 in 10.0 mi Calm Calm - N/A   Clear
4:55 PM 48.2 °F - 28.4 °F 46% 30.11 in 10.0 mi Calm Calm - N/A   Clear
5:15 PM 48.2 °F - 28.4 °F 46% 30.10 in 10.0 mi Calm Calm - N/A   Clear
5:35 PM 48.2 °F - 28.4 °F 46% 30.10 in 10.0 mi Calm Calm - N/A   Clear
5:55 PM 46.4 °F - 28.4 °F 50% 30.10 in 10.0 mi Calm Calm - N/A   Clear
6:15 PM 46.4 °F - 28.4 °F 50% 30.09 in 10.0 mi Calm Calm - N/A   Clear
6:35 PM 46.4 °F 44.3 °F 28.4 °F 50% 30.08 in 10.0 mi ESE 4.6 mph - N/A   Clear
6:55 PM 46.4 °F 44.3 °F 30.2 °F 53% 30.08 in 10.0 mi ESE 4.6 mph - N/A   Clear
7:15 PM 46.4 °F 44.3 °F 32.0 °F 57% 30.08 in 10.0 mi ESE 4.6 mph - N/A   Clear
7:35 PM 46.4 °F 44.3 °F 32.0 °F 57% 30.07 in 10.0 mi SE 4.6 mph - N/A   Clear
7:55 PM 46.4 °F 44.3 °F 35.6 °F 66% 30.05 in 10.0 mi SE 4.6 mph - N/A   Scattered Clouds
8:15 PM 48.2 °F - 37.4 °F 66% 30.04 in 10.0 mi SE 4.6 mph - N/A   Overcast
8:35 PM 48.2 °F - 39.2 °F 71% 30.03 in 10.0 mi SSE 4.6 mph - N/A   Overcast
8:55 PM 48.2 °F - 41.0 °F 76% 30.03 in 10.0 mi SE 5.8 mph - N/A   Overcast
9:15 PM 48.2 °F - 41.0 °F 76% 30.02 in 10.0 mi SE 5.8 mph - N/A   Overcast
9:35 PM 48.2 °F - 44.6 °F 87% 29.99 in 10.0 mi SE 4.6 mph - N/A   Overcast
9:55 PM 48.2 °F - 46.4 °F 93% 29.98 in 10.0 mi SE 5.8 mph - N/A   Overcast
10:15 PM 50.0 °F - 48.2 °F 94% 29.97 in 10.0 mi SE 6.9 mph - N/A   Overcast
10:35 PM 51.8 °F - 50.0 °F 94% 29.95 in 7.0 mi SE 9.2 mph - N/A Rain Light Rain
10:55 PM 51.8 °F - 51.8 °F 100% 29.94 in 8.0 mi SE 8.1 mph 18.4 mph N/A Rain Light Rain
11:15 PM 53.6 °F - 51.8 °F 94% 29.92 in 5.0 mi SE 8.1 mph - N/A   Overcast
11:35 PM 53.6 °F - 51.8 °F 94% 29.90 in 2.0 mi SE 9.2 mph - N/A Rain Light Rain
11:55 PM 53.6 °F - 53.6 °F 100% 29.88 in 1.8 mi SE 6.9 mph 16.1 mph 0.01 in Rain Light Rain